TimeCST,TemperatureF,Dew PointF,Humidity,Sea Level PressureIn,VisibilityMPH,Wind Direction,Wind SpeedMPH,Gust SpeedMPH,PrecipitationIn,Events,Conditions,WindDirDegrees,DateUTC
12:15 AM,24.6,17.8,75,29.99,10.0,Calm,Calm,-,N/A,,Clear,0,2012-12-22 06:15:00
12:35 AM,21.2,16.3,82,29.98,10.0,Calm,Calm,-,N/A,,Clear,0,2012-12-22 06:35:00
12:55 AM,21.6,15.8,78,29.98,10.0,SW,5.8,-,N/A,,Clear,230,2012-12-22 06:55:00
1:15 AM,22.8,17.4,80,29.98,10.0,WSW,3.5,-,N/A,,Clear,240,2012-12-22 07:15:00
1:35 AM,25.7,18.7,75,29.98,10.0,WSW,3.5,-,N/A,,Clear,240,2012-12-22 07:35:00
1:55 AM,24.8,18.3,76,29.98,10.0,SW,9.2,-,N/A,,Clear,230,2012-12-22 07:55:00
2:15 AM,25.3,18.5,75,29.98,10.0,SW,8.1,-,N/A,,Clear,220,2012-12-22 08:15:00
2:35 AM,24.3,18.0,77,29.98,10.0,SSW,4.6,-,N/A,,Clear,210,2012-12-22 08:35:00
2:55 AM,23.4,17.8,79,29.98,10.0,Calm,Calm,-,N/A,,Clear,0,2012-12-22 08:55:00
3:15 AM,21.7,16.7,81,29.98,10.0,Calm,Calm,-,N/A,,Clear,0,2012-12-22 09:15:00
3:35 AM,21.7,16.7,81,29.97,10.0,Calm,Calm,-,N/A,,Clear,0,2012-12-22 09:35:00
3:55 AM,20.8,16.2,82,29.96,10.0,SW,4.6,-,N/A,,Clear,230,2012-12-22 09:55:00
4:15 AM,19.0,14.5,83,29.95,10.0,Calm,Calm,-,N/A,,Clear,0,2012-12-22 10:15:00
4:35 AM,18.1,14.0,84,29.95,10.0,Calm,Calm,-,N/A,,Clear,0,2012-12-22 10:35:00
4:55 AM,17.2,13.1,84,29.96,10.0,West,4.6,-,N/A,,Clear,280,2012-12-22 10:55:00
5:15 AM,18.5,13.8,82,29.96,10.0,WSW,5.8,-,N/A,,Clear,240,2012-12-22 11:15:00
5:35 AM,18.5,13.3,80,29.95,10.0,Calm,Calm,-,N/A,,Clear,0,2012-12-22 11:35:00
5:55 AM,14.0,10.6,86,29.94,10.0,WNW,3.5,-,N/A,,Clear,290,2012-12-22 11:55:00
6:15 AM,16.9,12.6,83,29.95,10.0,West,4.6,-,N/A,,Clear,270,2012-12-22 12:15:00
6:35 AM,20.1,13.1,74,29.96,10.0,West,3.5,-,N/A,,Clear,260,2012-12-22 12:35:00
6:55 AM,19.2,11.7,72,29.96,10.0,West,3.5,-,N/A,,Clear,280,2012-12-22 12:55:00
7:15 AM,15.6,11.1,82,29.96,10.0,WNW,5.8,-,N/A,,Clear,290,2012-12-22 13:15:00
7:35 AM,17.4,11.8,79,29.96,10.0,West,4.6,-,N/A,,Clear,280,2012-12-22 13:35:00
7:55 AM,16.9,11.5,79,29.97,10.0,WNW,6.9,-,N/A,,Clear,300,2012-12-22 13:55:00
8:15 AM,17.6,11.3,76,29.98,10.0,WNW,5.8,-,N/A,,Clear,290,2012-12-22 14:15:00
8:35 AM,20.3,12.9,73,29.97,10.0,WNW,4.6,-,N/A,,Clear,290,2012-12-22 14:35:00
8:55 AM,21.6,13.5,71,29.98,10.0,WNW,8.1,-,N/A,,Clear,290,2012-12-22 14:55:00
9:15 AM,24.4,14.7,67,29.98,10.0,NW,3.5,-,N/A,,Clear,320,2012-12-22 15:15:00
9:35 AM,27.1,15.8,62,29.98,10.0,West,15.0,-,N/A,,Clear,280,2012-12-22 15:35:00
9:55 AM,29.3,16.3,58,29.98,10.0,West,12.7,-,N/A,,Clear,280,2012-12-22 15:55:00
10:15 AM,32.0,17.2,55,29.97,10.0,West,13.8,-,N/A,,Clear,280,2012-12-22 16:15:00
10:35 AM,34.7,17.4,49,29.98,10.0,West,13.8,-,N/A,,Clear,280,2012-12-22 16:35:00
10:55 AM,37.0,17.6,45,29.98,10.0,WNW,12.7,-,N/A,,Clear,290,2012-12-22 16:55:00
11:15 AM,39.2,17.8,42,29.98,10.0,WNW,11.5,17.3,N/A,,Clear,290,2012-12-22 17:15:00
11:35 AM,41.2,18.1,40,29.98,10.0,NW,12.7,18.4,N/A,,Clear,310,2012-12-22 17:35:00
11:55 AM,42.1,18.1,38,29.97,10.0,NW,12.7,-,N/A,,Clear,320,2012-12-22 17:55:00
12:15 PM,42.6,18.0,37,29.96,10.0,NW,12.7,19.6,N/A,,Clear,310,2012-12-22 18:15:00
12:35 PM,42.8,18.3,37,29.96,10.0,NW,16.1,19.6,N/A,,Clear,320,2012-12-22 18:35:00
12:55 PM,43.0,18.7,38,29.96,10.0,NNW,13.8,18.4,N/A,,Clear,330,2012-12-22 18:55:00
1:15 PM,43.7,19.0,37,29.96,10.0,NNW,10.4,-,N/A,,Clear,340,2012-12-22 19:15:00
1:35 PM,44.1,19.6,38,29.96,10.0,North,10.4,-,N/A,,Clear,350,2012-12-22 19:35:00
1:55 PM,43.7,17.8,35,29.96,10.0,NNW,12.7,18.4,N/A,,Clear,340,2012-12-22 19:55:00
2:15 PM,42.3,17.6,37,29.96,10.0,North,10.4,-,N/A,,Clear,350,2012-12-22 20:15:00
2:35 PM,41.9,19.4,41,29.96,10.0,NNW,8.1,-,N/A,,Clear,340,2012-12-22 20:35:00
2:55 PM,41.9,19.2,40,29.96,10.0,NNW,11.5,-,N/A,,Clear,340,2012-12-22 20:55:00
3:15 PM,41.5,19.8,42,29.96,10.0,North,9.2,-,N/A,,Clear,350,2012-12-22 21:15:00
3:35 PM,40.8,20.7,45,29.96,10.0,North,4.6,-,N/A,,Clear,10,2012-12-22 21:35:00
3:55 PM,39.2,20.3,47,29.96,10.0,North,4.6,-,N/A,,Clear,10,2012-12-22 21:55:00
4:15 PM,39.0,19.0,45,29.97,10.0,NNE,9.2,-,N/A,,Clear,20,2012-12-22 22:15:00
4:35 PM,36.5,20.5,52,29.97,10.0,NE,9.2,-,N/A,,Clear,40,2012-12-22 22:35:00
4:55 PM,34.0,19.9,56,29.97,10.0,NNE,6.9,-,N/A,,Clear,30,2012-12-22 22:55:00
5:15 PM,32.4,19.4,59,29.98,10.0,NNE,4.6,-,N/A,,Clear,30,2012-12-22 23:15:00
5:35 PM,30.7,18.9,61,29.98,10.0,North,3.5,-,N/A,,Clear,360,2012-12-22 23:35:00
5:55 PM,29.7,19.0,65,29.99,10.0,Calm,Calm,-,N/A,,Clear,0,2012-12-22 23:55:00
6:15 PM,29.1,18.5,65,29.99,10.0,North,4.6,-,N/A,,Clear,360,2012-12-23 00:15:00
6:35 PM,27.9,18.1,67,30.00,10.0,NNE,4.6,-,N/A,,Clear,20,2012-12-23 00:35:00
6:55 PM,26.6,17.4,68,30.00,10.0,North,4.6,-,N/A,,Clear,360,2012-12-23 00:55:00
7:15 PM,25.9,17.2,70,30.00,10.0,North,3.5,-,N/A,,Clear,10,2012-12-23 01:15:00
7:35 PM,25.3,16.5,69,30.01,10.0,NNE,4.6,-,N/A,,Clear,30,2012-12-23 01:35:00
7:55 PM,24.8,16.3,70,30.02,10.0,NNE,5.8,-,N/A,,Clear,20,2012-12-23 01:55:00
8:15 PM,23.5,16.2,73,30.01,10.0,NNE,3.5,-,N/A,,Clear,20,2012-12-23 02:15:00
8:35 PM,22.3,15.4,75,30.00,10.0,NNE,5.8,-,N/A,,Clear,30,2012-12-23 02:35:00
8:55 PM,20.8,15.4,80,30.00,10.0,NE,5.8,-,N/A,,Clear,50,2012-12-23 02:55:00
9:15 PM,20.1,15.1,81,30.01,10.0,Calm,Calm,-,N/A,,Clear,0,2012-12-23 03:15:00
9:35 PM,19.0,14.5,83,30.01,10.0,NNE,4.6,-,N/A,,Clear,30,2012-12-23 03:35:00
9:55 PM,18.7,14.2,83,29.99,10.0,NE,4.6,-,N/A,,Clear,40,2012-12-23 03:55:00
10:15 PM,17.6,14.0,86,29.98,10.0,NE,5.8,-,N/A,,Clear,50,2012-12-23 04:15:00
10:35 PM,17.4,13.8,86,29.98,10.0,Calm,Calm,-,N/A,,Clear,0,2012-12-23 04:35:00
10:55 PM,16.7,13.6,88,29.98,10.0,Calm,Calm,-,N/A,,Clear,0,2012-12-23 04:55:00
11:15 PM,15.3,12.2,88,29.99,10.0,Calm,Calm,-,N/A,,Clear,0,2012-12-23 05:15:00
11:35 PM,16.0,13.5,90,29.98,10.0,Calm,Calm,-,N/A,,Clear,0,2012-12-23 05:35:00
11:55 PM,13.1,10.4,89,29.99,10.0,West,4.6,-,N/A,,Clear,260,2012-12-23 05:55:00